Miscellaneous Local Product
Issued by NWS North Platte, NE

Home | Current Version | Previous Version | Text Only | Print | Product List | Glossary On
Versions: 1 2 3 4 5 6 7 8 9 10 11 12 13 14 15 16 17 18 19 20 21 22 23 24 25 26 27 28 29 30 31 32 33 34 35 36 37 38 39 40 41 42 43 44 45 46 47 48 49 50
000
AXUS43 KLBF 270110
MISLBF


WESTERN AND NORTH CENTRAL NEBRASKA HOURLY WEATHER ROUNDUP
NATIONAL WEATHER SERVICE NORTH PLATTE NE
800 PM CDT TUE JUL 26 2016

NOTE: "FAIR" INDICATES FEW OR NO CLOUDS BELOW 12,000 FEET WITH NO
SIGNIFICANT WEATHER AND/OR OBSTRUCTIONS TO VISIBILITY.

NOTE: STATIONS NOT REPORTING VARIABLES SUCH AS SKY/WEATHER OR
PRESSURE ARE PROVIDED BY RAWS AND APRS NETWORKS AND ARE NOT UNDER
NATIONAL WEATHER SERVICE QUALITY CONTROL.

...OBSERVATIONS IN AND NEAR THE EASTERN PANHANDLE OF NEBRASKA...

CITY           SKY/WX    TMP DP  RH WIND       PRES   REMARKS
PINE RIDGE     CLOUDY    85  66  53 N24G39    29.90F THUNDER
CHADRON        TSTM      83  63  50 N28G47    29.96R
ALLIANCE       CLOUDY    82  64  54 SE8       29.97S
SIDNEY         CLOUDY    85  52  32 SW23G31   30.03R
CRESCENT LAKE    N/A     83  66  56 S7          N/A
$$

...OBSERVATIONS IN NORTHERN NEBRASKA AND FAR SOUTHERN SOUTH DAKOTA...

CITY           SKY/WX    TMP DP  RH WIND       PRES   REMARKS
WINNER         TSTM      71  66  84 NE23G32   29.92F
VALENTINE      CLOUDY    86  65  49 S23G30    29.87F
THEDFORD       MOSUNNY   85  68  56 SE14G20   29.97F
AINSWORTH      MOSUNNY   85  65  51 S15       29.96R
O`NEILL        CLEAR     83  64  53 SE12      29.99R
ORD            CLEAR     83  66  56 SE12      29.97S
BROKEN BOW     CLEAR     82  68  62 S12       29.99F
VALENTINE NWR    N/A     85  66  53 S13G20      N/A
BUTTE            N/A     82  67  59 SE9G18      N/A
HALSEY           N/A     83  66  56 S8G15       N/A
EWING            N/A     81  68  64 SE3G12      N/A
$$

...OBSERVATIONS IN SOUTHWEST NEBRASKA AND FAR NORTHEAST COLORADO...

CITY           SKY/WX    TMP DP  RH WIND       PRES   REMARKS
WRAY           FAIR      79  50  36 SW10G23   30.01
HOLYOKE        FAIR      79  59  50 W6        30.00R
IMPERIAL       CLOUDY    87  63  44 S15       29.97S
OGALLALA       MOSUNNY   87  62  43 S13       29.95F
NORTH PLATTE   MOSUNNY   83  68  60 SE9       29.97R
MCCOOK         MOSUNNY   86  62  44 S13       29.98R
LEXINGTON      PTCLDY    83  66  56 SE10      30.00R
STAPLETON        N/A     82  69  64 CALM        N/A
GOTHENBURG       N/A     85  63  47 SE8         N/A
CALLAWAY         N/A     82  69  66 SE9         N/A
$$

...OBSERVATIONS IN CENTRAL LINCOLN COUNTY AREA...

CITY           SKY/WX    TMP DP  RH WIND       PRES   REMARKS
N.P. AIRPORT   MOSUNNY   83  68  60 SE9       29.97R
N.P. DOWNTOWN    N/A     87  69  54 CALM        N/A  HX  91
N.P. SOUTHEAST   N/A     84  68  58 SE5         N/A
N.P. HILLCREST   N/A     84  68  58 SE12        N/A
$$

...SOME OBSERVATIONS FROM AROUND THE REGION...

CITY           SKY/WX    TMP DP  RH WIND       PRES   REMARKS
DENVER         CLOUDY    86  43  22 SE3       30.13R
LARAMIE        CLOUDY    78  31  17 S10       30.24F
CHEYENNE       CLOUDY    83  41  22 S12       30.16F
SCOTTSBLUFF    CLOUDY    88  37  16 SW15G22   29.99R
RAPID CITY     PTSUNNY   79  56  45 N15       29.98R
BISMARCK       CLOUDY    78  66  66 N16G24    30.00R
PIERRE         CLOUDY    77  67  71 SE12      29.91S
SIOUX FALLS    CLOUDY    82  66  58 S13       29.97S
OMAHA          PTCLDY    84  66  54 SE9       29.99S
GRAND ISLAND   CLEAR     83  67  58 SE8       30.00S
KANSAS CITY    PTCLDY    83  66  56 E9        30.01R
WICHITA        PTCLDY    86  71  60 NE17      29.96R HX  91
OKLAHOMA CITY  MOCLDY    84  73  69 SE9       29.93R HX  90
DALLAS         CLOUDY    90  71  53 E3        29.88R HX  96
AMARILLO       CLEAR     86  60  41 SE23      30.02R
DODGE CITY     CLEAR     84  65  52 S9        30.01R
HAYS           CLEAR     86  64  48 S7        29.99R
GOODLAND       PTSUNNY   82  60  47 W18G25    30.09R
$$




USA.gov is the U.S. government's official web portal to all federal, state and local government web resources and services.